Miscellaneous Local Product
Issued by NWS Hastings, NE

Home | Current Version | Previous Version | Graphics & Text | Print | Product List | Glossary On
Versions: 1 2 3 4 5 6 7 8 9 10 11 12 13 14 15 16 17 18 19 20 21 22 23 24 25 26 27 28 29 30 31 32 33 34 35 36 37 38 39 40 41 42 43 44 45 46 47 48 49 50
000
AXUS43 KGID 172202
MISGRI

GID CWA HOURLY WEATHER ROUNDUP
NATIONAL WEATHER SERVICE HASTINGS NE
400 PM CST WED DEC 17 2014

NOTE: "FAIR" INDICATES FEW OR NO CLOUDS BELOW 12,000 FEET WITH NO
SIGNIFICANT WEATHER AND/OR OBSTRUCTIONS TO VISIBILITY.

...SOUTH CENTRAL NEBRASKA...

CITY           SKY/WX    TMP DP  RH WIND       PRES   REMARKS
GRAND ISLAND   CLOUDY    25  20  81 E6        30.19S WCI  18
HASTINGS       CLOUDY    26  19  74 E7        30.16S WCI  18
KEARNEY        CLOUDY    25  19  80 E5        30.15S WCI  19
ORD            CLOUDY    21  18  88 SE6       30.16S WCI  13
YORK           CLOUDY    27  18  69 E7        30.20F WCI  19
AURORA         CLOUDY    26  21  82 E7        30.18F WCI  18
LEXINGTON      CLOUDY    22  21  94 SE8       30.12F FOG     WCI  13
HOLDREGE       CLOUDY    24  21  89 E5        30.13F WCI  18
HEBRON         CLOUDY    27  17  63 E6        30.21S WCI  21

...NEBRASKA PANHANDLE...

CITY           SKY/WX    TMP DP  RH WIND       PRES   REMARKS
CHADRON        SUNNY     27  21  78 S9        29.96S WCI  18
ALLIANCE       CLOUDY    23  21  92 S17       29.95R WCI   9
SCOTTSBLUFF    SUNNY     22  18  85 SE9       29.95R WCI  12
SIDNEY         CLOUDY    22  20  92 MISG      29.96S FOG

...WESTERN AND NORTH CENTRAL NEBRASKA...

CITY           SKY/WX    TMP DP  RH WIND       PRES   REMARKS
VALENTINE      CLOUDY    22  19  89 S10       30.08F WCI  11
AINSWORTH      CLOUDY    21  20  96 S8        30.10S FOG     WCI  11
ONEILL         CLOUDY    20  19  96 SE3       30.18F
BROKEN BOW     CLOUDY    22  20  92 SE8       30.12S WCI  12
IMPERIAL       CLOUDY    23  20  88 S7        30.04S FOG     WCI  15
NORTH PLATTE   CLOUDY    22  20  92 SE6       30.08S FOG     WCI  14
MCCOOK         CLOUDY    23  22  96 E10       30.10R FOG     WCI  12

...EASTERN NEBRASKA...

CITY           SKY/WX    TMP DP  RH WIND       PRES   REMARKS
NORFOLK        CLOUDY    26  15  63 E5        30.22R WCI  20
SO SIOUX CITY  CLEAR     26  15  63 E5        30.28S WCI  20
TEKAMAH        MOCLDY    26  16  65 NE3       30.27S
COLUMBUS       CLOUDY    25  12  58 E6        30.24F WCI  18
ALBION         CLOUDY    24  19  81 SE5       30.20F WCI  18
OMAHA EPPLEY   MOCLDY    28  16  60 CALM      30.28S
OFFUTT AFB     CLOUDY    27  17  64 S2        30.26S
MILLARD        CLOUDY    28  16  60 CALM      30.26S
LINCOLN        CLOUDY    26  16  65 E7        30.25F WCI  18
NEBRASKA CITY  CLOUDY    26  15  64 E6        30.25F WCI  19
BEATRICE       CLOUDY    28  18  67 E6        30.22F WCI  21
FALLS CITY     CLOUDY    27  19  72 E5        30.26R WCI  22

...NORTHERN KANSAS...

CITY           SKY/WX    TMP DP  RH WIND       PRES   REMARKS
GOODLAND       FOG       25  24  96 E9        29.99F VSB 1/4 WCI  15
HILL CITY      CLOUDY    29  23  78 E10       30.11R WCI  20
NORTON         CLOUDY    25  19  80 E7        30.10S WCI  17
PHILLIPSBURG   CLOUDY    30  25  80 E10       30.15R WCI  21
SMITH CENTER   MOSUNNY   27  19  74 E10       30.17S WCI  17
BELOIT         CLOUDY    28  21  74 E9        30.18R WCI  20
HAYS           CLOUDY    30  19  64 E15       30.11R WCI  19
RUSSELL        CLOUDY    30  24  78 E13       30.12S WCI  20
CONCORDIA      CLOUDY    28  19  69 E9        30.19S WCI  19
SALINA         CLOUDY    28  22  78 NE10      30.19F WCI  19
TOPEKA         CLOUDY    30  21  69 E5        30.25S WCI  25



USA.gov is the U.S. government's official web portal to all federal, state and local government web resources and services.